Location: Meadowbank Aerodrome
(65.0250°N, 96.0705°W)
Time: 06:16:20
(UTC-05:00)

Cosmos 2221 - Visible Passes

Search period start: 01 September 2014 00:00
Search period end: 11 September 2014 00:00
Orbit: 597 x 623 km, 82.5° (Epoch: 31 August)

Date Brightness Start Highest point End Pass type
(mag) Time Alt. Az. Time Alt. Az. Time Alt. Az.
01 Sep 3.4 00:36:36 13° SW 00:40:22 48° WNW 00:44:36 10° NNE visible
01 Sep 5.1 02:16:17 10° W 02:19:08 17° NW 02:21:58 10° N visible
01 Sep 4.4 21:37:55 10° ESE 21:40:20 15° ENE 21:42:45 10° NE visible
01 Sep 2.6 23:14:02 17° S 23:17:13 58° E 23:21:29 10° NNE visible
02 Sep 3.9 00:51:09 10° SW 00:55:11 36° WNW 00:59:13 10° N visible
02 Sep 5.2 02:31:52 10° WNW 02:34:10 14° NNW 02:36:27 10° N visible
02 Sep 4.0 21:51:33 10° SE 21:54:43 20° E 21:57:52 10° NE visible
02 Sep 2.5 23:28:25 16° S 23:31:50 81° ESE 23:36:11 10° NNE visible
03 Sep 4.4 01:06:16 10° WSW 01:10:02 28° NW 01:13:48 10° N visible
03 Sep 5.4 02:47:38 10° NW 02:49:14 12° NNW 02:50:50 10° N visible
03 Sep 3.6 22:05:48 12° SE 22:09:08 27° E 22:12:47 10° NNE visible
03 Sep 2.7 23:42:46 14° SSW 23:46:31 74° WNW 23:50:52 10° NNE visible
04 Sep 4.8 01:21:32 10° W 01:24:57 22° NW 01:28:22 10° N visible
04 Sep 5.6 03:03:59 10° NNW 03:04:21 10° NNW 03:04:42 10° NNW visible
04 Sep 3.2 22:20:08 13° SSE 22:23:37 37° E 22:27:36 10° NNE visible
04 Sep 3.2 23:57:05 11° SW 00:01:15 54° WNW 00:05:30 10° NNE visible
05 Sep 5.1 01:36:55 10° W 01:39:55 18° NW 01:42:55 10° N visible
05 Sep 2.7 22:34:25 13° S 22:38:10 51° E 22:42:21 10° NNE visible
06 Sep 3.8 00:11:55 10° SW 00:16:01 40° WNW 00:20:07 10° N visible
06 Sep 5.3 01:52:26 10° WNW 01:54:55 15° NW 01:57:24 10° N visible
06 Sep 4.1 21:12:49 10° ESE 21:15:43 18° E 21:18:36 10° NE visible
06 Sep 2.5 22:48:40 11° S 22:52:45 72° ESE 22:57:04 10° NNE visible
07 Sep 4.3 00:27:00 10° WSW 00:30:51 30° NW 00:34:43 10° N visible
07 Sep 5.4 02:08:07 10° NW 02:09:58 12° NNW 02:11:49 10° N visible
07 Sep 5.8 05:28:58 10° NNE 05:29:45 10° NNE 05:30:33 10° NE visible
07 Sep 3.7 21:26:39 10° SE 21:30:07 24° E 21:33:35 10° NNE visible
07 Sep 2.5 23:03:03 10° SSW 23:07:24 83° WNW 23:11:45 10° NNE visible
08 Sep 4.7 00:42:12 10° WSW 00:45:45 24° NW 00:49:17 10° N visible
08 Sep 5.6 02:24:07 10° NW 02:25:04 11° NNW 02:26:01 10° N visible
08 Sep 3.3 21:40:43 10° SSE 21:44:34 32° E 21:48:26 10° NNE visible
08 Sep 3.0 23:17:49 10° SSW 23:22:06 60° WNW 23:26:23 10° NNE visible
09 Sep 5.1 00:57:32 10° W 01:00:41 19° NW 01:03:50 10° N visible
09 Sep 2.9 21:54:58 10° SSE 21:59:05 45° E 22:03:12 10° NNE visible
09 Sep 3.6 23:32:42 10° SW 23:36:51 44° WNW 23:41:01 10° NNE visible
10 Sep 5.3 01:13:00 10° WNW 01:15:40 16° NW 01:18:20 10° N visible
10 Sep 2.5 22:09:23 10° S 22:13:39 63° E 22:17:55 10° NNE visible
10 Sep 4.2 23:47:43 10° WSW 23:51:40 33° WNW 23:55:37 10° N visible
